Time,TemperatureF,DewpointF,PressureIn,WindDirection,WindDirectionDegrees,WindSpeedMPH,WindSpeedGustMPH,Humidity,HourlyPrecipIn,Conditions,Clouds,dailyrainin,SolarRadiationWatts/m^2,SoftwareType,DateUTC
2013-03-02 00:00:00,41.1,31.0,30.35,NNE,29,1.0,1.0,67,0.00,,,0.00,0,Wunderground v.1.15,2013-03-02 06:00:00,
2013-03-02 00:06:00,41.0,30.5,30.36,NE,40,1.0,3.0,66,0.00,,,0.00,0,Wunderground v.1.15,2013-03-02 06:06:00,
2013-03-02 00:11:00,40.8,30.7,30.36,NNE,32,2.0,4.0,67,0.00,,,0.00,0,Wunderground v.1.15,2013-03-02 06:11:00,
2013-03-02 00:17:00,40.6,30.9,30.36,NE,55,1.0,4.0,68,0.00,,,0.00,0,Wunderground v.1.15,2013-03-02 06:17:00,
2013-03-02 00:23:00,40.4,30.7,30.36,NNW,345,0.0,1.0,68,0.00,,,0.00,0,Wunderground v.1.15,2013-03-02 06:23:00,
2013-03-02 00:28:00,40.2,30.5,30.36,WNW,294,0.0,3.0,68,0.00,,,0.00,0,Wunderground v.1.15,2013-03-02 06:28:00,
2013-03-02 00:34:00,40.1,30.4,30.36,NNE,25,1.0,1.0,68,0.00,,,0.00,0,Wunderground v.1.15,2013-03-02 06:34:00,
2013-03-02 00:39:00,39.8,30.5,30.36,WNW,283,1.0,3.0,69,0.00,,,0.00,0,Wunderground v.1.15,2013-03-02 06:39:00,
2013-03-02 00:45:00,39.8,30.8,30.37,WNW,292,1.0,4.0,70,0.00,,,0.00,0,Wunderground v.1.15,2013-03-02 06:45:00,
2013-03-02 00:51:00,39.5,30.2,30.37,NNE,22,1.0,5.0,69,0.00,,,0.00,0,Wunderground v.1.15,2013-03-02 06:51:00,
2013-03-02 00:56:00,39.3,30.0,30.37,North,355,1.0,5.0,69,0.00,,,0.00,0,Wunderground v.1.15,2013-03-02 06:56:00,
2013-03-02 01:02:00,39.2,30.2,30.37,NNW,334,1.0,6.0,70,0.00,,,0.00,0,Wunderground v.1.15,2013-03-02 07:02:00,
2013-03-02 01:07:00,39.0,30.0,30.37,WNW,295,2.0,6.0,70,0.00,,,0.00,0,Wunderground v.1.15,2013-03-02 07:07:00,
2013-03-02 01:13:00,38.7,30.1,30.37,NE,40,2.0,5.0,71,0.00,,,0.00,0,Wunderground v.1.15,2013-03-02 07:13:00,
2013-03-02 01:18:00,38.6,30.0,30.37,NW,304,1.0,5.0,71,0.00,,,0.00,0,Wunderground v.1.15,2013-03-02 07:18:00,
2013-03-02 01:24:00,38.3,29.7,30.38,NNE,33,1.0,6.0,71,0.00,,,0.00,0,Wunderground v.1.15,2013-03-02 07:24:00,
2013-03-02 01:30:00,38.1,29.5,30.38,ENE,63,2.0,3.0,71,0.00,,,0.00,0,Wunderground v.1.15,2013-03-02 07:30:00,
2013-03-02 01:36:00,38.0,29.4,30.38,NE,36,1.0,3.0,71,0.00,,,0.00,0,Wunderground v.1.15,2013-03-02 07:36:00,
2013-03-02 01:41:00,37.8,29.6,30.38,NW,315,1.0,1.0,72,0.00,,,0.00,0,Wunderground v.1.15,2013-03-02 07:41:00,
2013-03-02 01:46:00,37.7,29.1,30.38,NNE,30,1.0,1.0,71,0.00,,,0.00,0,Wunderground v.1.15,2013-03-02 07:46:00,
2013-03-02 01:52:00,37.6,29.0,30.38,North,10,1.0,2.0,71,0.00,,,0.00,0,Wunderground v.1.15,2013-03-02 07:52:00,
2013-03-02 01:57:00,37.5,28.9,30.38,NNE,18,1.0,2.0,71,0.00,,,0.00,0,Wunderground v.1.15,2013-03-02 07:57:00,
2013-03-02 02:03:00,37.2,28.7,30.38,NW,306,1.0,2.0,71,0.00,,,0.00,0,Wunderground v.1.15,2013-03-02 08:03:00,
2013-03-02 02:08:00,37.1,28.6,30.38,NW,325,1.0,3.0,71,0.00,,,0.00,0,Wunderground v.1.15,2013-03-02 08:08:00,
2013-03-02 02:14:00,37.1,28.2,30.38,NW,311,1.0,3.0,70,0.00,,,0.00,0,Wunderground v.1.15,2013-03-02 08:14:00,
2013-03-02 02:19:00,37.0,28.5,30.38,North,360,1.0,3.0,71,0.00,,,0.00,0,Wunderground v.1.15,2013-03-02 08:19:00,
2013-03-02 02:25:00,37.0,28.5,30.38,NW,308,1.0,2.0,71,0.00,,,0.00,0,Wunderground v.1.15,2013-03-02 08:25:00,
2013-03-02 02:31:00,36.8,28.3,30.38,WNW,293,1.0,5.0,71,0.00,,,0.00,0,Wunderground v.1.15,2013-03-02 08:31:00,
2013-03-02 02:36:00,36.7,28.2,30.38,NW,320,1.0,5.0,71,0.00,,,0.00,0,Wunderground v.1.15,2013-03-02 08:36:00,
2013-03-02 02:42:00,36.7,28.2,30.38,NW,318,0.0,1.0,71,0.00,,,0.00,0,Wunderground v.1.15,2013-03-02 08:42:00,
2013-03-02 02:47:00,36.5,28.3,30.38,WNW,292,0.0,4.0,72,0.00,,,0.00,0,Wunderground v.1.15,2013-03-02 08:47:00,
2013-03-02 02:53:00,36.5,28.0,30.37,NW,310,1.0,2.0,71,0.00,,,0.00,0,Wunderground v.1.15,2013-03-02 08:53:00,
2013-03-02 02:58:00,36.6,28.1,30.37,NNW,344,1.0,4.0,71,0.00,,,0.00,0,Wunderground v.1.15,2013-03-02 08:58:00,
2013-03-02 03:04:00,36.5,28.0,30.37,West,267,1.0,1.0,71,0.00,,,0.00,0,Wunderground v.1.15,2013-03-02 09:04:00,
2013-03-02 03:09:00,36.5,28.0,30.38,West,275,1.0,6.0,71,0.00,,,0.00,0,Wunderground v.1.15,2013-03-02 09:09:00,
2013-03-02 03:14:00,36.5,28.0,30.37,NW,304,2.0,4.0,71,0.00,,,0.00,0,Wunderground v.1.15,2013-03-02 09:14:00,
2013-03-02 03:20:00,36.4,27.9,30.38,WNW,296,1.0,1.0,71,0.00,,,0.00,0,Wunderground v.1.15,2013-03-02 09:20:00,
2013-03-02 03:26:00,36.1,27.9,30.38,West,273,1.0,4.0,72,0.00,,,0.00,0,Wunderground v.1.15,2013-03-02 09:26:00,
2013-03-02 03:32:00,36.1,27.9,30.39,WNW,287,1.0,3.0,72,0.00,,,0.00,0,Wunderground v.1.15,2013-03-02 09:32:00,
2013-03-02 03:38:00,35.9,27.7,30.38,NW,311,1.0,3.0,72,0.00,,,0.00,0,Wunderground v.1.15,2013-03-02 09:38:00,
2013-03-02 03:43:00,35.7,27.9,30.39,WNW,285,1.0,4.0,73,0.00,,,0.00,0,Wunderground v.1.15,2013-03-02 09:43:00,
2013-03-02 03:49:00,35.6,28.1,30.39,West,269,1.0,4.0,74,0.00,,,0.00,0,Wunderground v.1.15,2013-03-02 09:49:00,
2013-03-02 03:55:00,35.5,27.7,30.38,WNW,302,1.0,3.0,73,0.00,,,0.00,0,Wunderground v.1.15,2013-03-02 09:55:00,
2013-03-02 04:00:00,35.5,27.7,30.38,NW,308,1.0,1.0,73,0.00,,,0.00,0,Wunderground v.1.15,2013-03-02 10:00:00,
2013-03-02 04:06:00,35.5,27.7,30.39,NNE,31,1.0,3.0,73,0.00,,,0.00,0,Wunderground v.1.15,2013-03-02 10:06:00,
2013-03-02 04:11:00,35.6,27.8,30.39,WNW,285,1.0,1.0,73,0.00,,,0.00,0,Wunderground v.1.15,2013-03-02 10:11:00,
2013-03-02 04:17:00,35.5,27.4,30.39,NNE,24,1.0,4.0,72,0.00,,,0.00,0,Wunderground v.1.15,2013-03-02 10:17:00,
2013-03-02 04:23:00,35.5,27.7,30.39,WNW,283,1.0,2.0,73,0.00,,,0.00,0,Wunderground v.1.15,2013-03-02 10:23:00,
2013-03-02 04:29:00,35.3,27.5,30.40,NW,306,1.0,3.0,73,0.00,,,0.00,0,Wunderground v.1.15,2013-03-02 10:29:00,
2013-03-02 04:34:00,35.2,27.4,30.39,SW,215,1.0,2.0,73,0.00,,,0.00,0,Wunderground v.1.15,2013-03-02 10:34:00,
2013-03-02 04:40:00,35.2,27.1,30.39,NW,315,1.0,7.0,72,0.00,,,0.00,0,Wunderground v.1.15,2013-03-02 10:40:00,
2013-03-02 04:46:00,35.2,27.4,30.39,NNE,32,2.0,7.0,73,0.00,,,0.00,0,Wunderground v.1.15,2013-03-02 10:46:00,
2013-03-02 04:52:00,35.2,27.7,30.40,West,279,1.0,2.0,74,0.00,,,0.00,0,Wunderground v.1.15,2013-03-02 10:52:00,
2013-03-02 04:57:00,35.0,27.2,30.40,WNW,301,2.0,5.0,73,0.00,,,0.00,0,Wunderground v.1.15,2013-03-02 10:57:00,
2013-03-02 05:03:00,34.9,27.5,30.40,NW,307,1.0,2.0,74,0.00,,,0.00,0,Wunderground v.1.15,2013-03-02 11:03:00,
2013-03-02 05:09:00,34.8,27.4,30.40,WNW,303,1.0,2.0,74,0.00,,,0.00,0,Wunderground v.1.15,2013-03-02 11:09:00,
2013-03-02 05:14:00,34.7,27.3,30.41,WNW,288,1.0,2.0,74,0.00,,,0.00,0,Wunderground v.1.15,2013-03-02 11:14:00,
2013-03-02 05:19:00,34.6,27.2,30.41,West,276,1.0,4.0,74,0.00,,,0.00,0,Wunderground v.1.15,2013-03-02 11:19:00,
2013-03-02 05:25:00,34.5,27.1,30.42,WNW,294,1.0,2.0,74,0.00,,,0.00,0,Wunderground v.1.15,2013-03-02 11:25:00,
2013-03-02 05:30:00,34.5,27.4,30.42,NW,319,2.0,2.0,75,0.00,,,0.00,0,Wunderground v.1.15,2013-03-02 11:30:00,
2013-03-02 05:36:00,34.3,27.2,30.41,WNW,289,1.0,2.0,75,0.00,,,0.00,0,Wunderground v.1.15,2013-03-02 11:36:00,
2013-03-02 05:42:00,34.1,27.0,30.41,WNW,298,1.0,1.0,75,0.00,,,0.00,0,Wunderground v.1.15,2013-03-02 11:42:00,
2013-03-02 05:47:00,33.9,27.1,30.41,NW,308,1.0,2.0,76,0.00,,,0.00,0,Wunderground v.1.15,2013-03-02 11:47:00,
2013-03-02 05:53:00,33.8,27.0,30.42,West,279,1.0,3.0,76,0.00,,,0.00,0,Wunderground v.1.15,2013-03-02 11:53:00,
2013-03-02 05:58:00,33.7,27.3,30.42,West,278,1.0,3.0,77,0.00,,,0.00,0,Wunderground v.1.15,2013-03-02 11:58:00,
2013-03-02 06:04:00,33.5,27.1,30.42,West,277,0.0,4.0,77,0.00,,,0.00,0,Wunderground v.1.15,2013-03-02 12:04:00,
2013-03-02 06:10:00,33.2,27.1,30.42,West,277,0.0,0.0,78,0.00,,,0.00,0,Wunderground v.1.15,2013-03-02 12:10:00,
2013-03-02 06:16:00,33.1,27.3,30.42,West,277,0.0,3.0,79,0.00,,,0.00,0,Wunderground v.1.15,2013-03-02 12:16:00,
2013-03-02 06:21:00,33.1,27.3,30.42,West,277,0.0,0.0,79,0.00,,,0.00,0,Wunderground v.1.15,2013-03-02 12:21:00,
2013-03-02 06:27:00,32.8,27.3,30.42,West,277,0.0,2.0,80,0.00,,,0.00,0,Wunderground v.1.15,2013-03-02 12:27:00,
2013-03-02 06:33:00,32.6,27.1,30.43,West,277,1.0,4.0,80,0.00,,,0.00,0,Wunderground v.1.15,2013-03-02 12:33:00,
2013-03-02 06:39:00,32.6,27.1,30.43,West,277,1.0,4.0,80,0.00,,,0.00,0,Wunderground v.1.15,2013-03-02 12:39:00,
2013-03-02 06:44:00,32.4,26.9,30.43,West,277,1.0,2.0,80,0.00,,,0.00,0,Wunderground v.1.15,2013-03-02 12:44:00,
2013-03-02 06:49:00,32.3,26.8,30.43,West,277,0.0,2.0,80,0.00,,,0.00,0,Wunderground v.1.15,2013-03-02 12:49:00,
2013-03-02 06:54:00,32.2,27.0,30.44,West,277,0.0,2.0,81,0.00,,,0.00,5,Wunderground v.1.15,2013-03-02 12:54:00,
2013-03-02 06:59:00,32.2,27.0,30.44,West,277,0.0,2.0,81,0.00,,,0.00,9,Wunderground v.1.15,2013-03-02 12:59:00,
2013-03-02 07:05:00,32.2,27.0,30.45,West,277,0.0,0.0,81,0.00,,,0.00,12,Wunderground v.1.15,2013-03-02 13:05:00,
2013-03-02 07:10:00,32.2,27.0,30.45,West,277,0.0,0.0,81,0.00,,,0.00,18,Wunderground v.1.15,2013-03-02 13:10:00,
2013-03-02 07:16:00,32.1,26.9,30.45,NW,304,0.0,4.0,81,0.00,,,0.00,21,Wunderground v.1.15,2013-03-02 13:16:00,
2013-03-02 07:21:00,32.1,26.9,30.45,NW,306,1.0,1.0,81,0.00,,,0.00,26,Wunderground v.1.15,2013-03-02 13:21:00,
2013-03-02 07:27:00,32.2,27.0,30.45,NW,306,0.0,1.0,81,0.00,,,0.00,30,Wunderground v.1.15,2013-03-02 13:27:00,
2013-03-02 07:33:00,32.4,27.2,30.45,NW,306,0.0,0.0,81,0.00,,,0.00,33,Wunderground v.1.15,2013-03-02 13:33:00,
2013-03-02 07:39:00,32.9,27.7,30.46,North,9,1.0,3.0,81,0.00,,,0.00,39,Wunderground v.1.15,2013-03-02 13:39:00,
2013-03-02 07:44:00,33.2,27.7,30.46,West,269,1.0,7.0,80,0.00,,,0.00,42,Wunderground v.1.15,2013-03-02 13:44:00,
2013-03-02 07:50:00,33.5,27.7,30.46,NW,313,2.0,4.0,79,0.00,,,0.00,60,Wunderground v.1.15,2013-03-02 13:50:00,
2013-03-02 07:55:00,33.8,27.7,30.46,NW,317,2.0,4.0,78,0.00,,,0.00,97,Wunderground v.1.15,2013-03-02 13:55:00,
2013-03-02 08:01:00,34.1,27.6,30.47,NW,307,1.0,2.0,77,0.00,,,0.00,153,Wunderground v.1.15,2013-03-02 14:01:00,
2013-03-02 08:06:00,34.4,27.3,30.47,North,5,2.0,4.0,75,0.00,,,0.00,172,Wunderground v.1.15,2013-03-02 14:06:00,
2013-03-02 08:11:00,34.5,26.7,30.47,WNW,293,3.0,6.0,73,0.00,,,0.00,190,Wunderground v.1.15,2013-03-02 14:11:00,
2013-03-02 08:17:00,34.9,26.8,30.47,NNE,27,2.0,6.0,72,0.00,,,0.00,206,Wunderground v.1.15,2013-03-02 14:17:00,
2013-03-02 08:23:00,35.1,26.3,30.47,NE,38,3.0,7.0,70,0.00,,,0.00,230,Wunderground v.1.15,2013-03-02 14:23:00,
2013-03-02 08:29:00,35.3,26.5,30.48,ESE,123,4.0,7.0,70,0.00,,,0.00,246,Wunderground v.1.15,2013-03-02 14:29:00,
2013-03-02 08:34:00,35.6,26.1,30.48,WNW,301,3.0,5.0,68,0.00,,,0.00,265,Wunderground v.1.15,2013-03-02 14:34:00,
2013-03-02 08:40:00,36.3,27.1,30.48,NE,56,2.0,2.0,69,0.00,,,0.00,285,Wunderground v.1.15,2013-03-02 14:40:00,
2013-03-02 08:45:00,36.2,26.3,30.48,NNE,26,3.0,7.0,67,0.00,,,0.00,299,Wunderground v.1.15,2013-03-02 14:45:00,
2013-03-02 08:51:00,36.6,27.0,30.48,NW,325,4.0,4.0,68,0.00,,,0.00,323,Wunderground v.1.15,2013-03-02 14:51:00,
2013-03-02 08:57:00,37.2,27.2,30.48,NE,40,3.0,4.0,67,0.00,,,0.00,338,Wunderground v.1.15,2013-03-02 14:57:00,
2013-03-02 09:02:00,37.7,27.4,30.48,NE,43,2.0,4.0,66,0.00,,,0.00,359,Wunderground v.1.15,2013-03-02 15:02:00,
2013-03-02 09:08:00,37.4,26.3,30.48,NNE,21,3.0,6.0,64,0.00,,,0.00,380,Wunderground v.1.15,2013-03-02 15:08:00,
2013-03-02 09:14:00,37.6,26.1,30.48,NE,56,4.0,5.0,63,0.00,,,0.00,397,Wunderground v.1.15,2013-03-02 15:14:00,
2013-03-02 09:19:00,37.7,26.2,30.48,NNE,19,4.0,7.0,63,0.00,,,0.00,415,Wunderground v.1.15,2013-03-02 15:19:00,
2013-03-02 09:24:00,37.7,26.2,30.48,WNW,298,4.0,5.0,63,0.00,,,0.00,427,Wunderground v.1.15,2013-03-02 15:24:00,
2013-03-02 09:30:00,38.4,26.5,30.48,NNE,20,3.0,4.0,62,0.00,,,0.00,445,Wunderground v.1.15,2013-03-02 15:30:00,
2013-03-02 09:36:00,38.2,25.9,30.48,West,276,3.0,7.0,61,0.00,,,0.00,462,Wunderground v.1.15,2013-03-02 15:36:00,
2013-03-02 09:42:00,38.7,27.2,30.48,West,281,4.0,6.0,63,0.00,,,0.00,480,Wunderground v.1.15,2013-03-02 15:42:00,
2013-03-02 09:48:00,38.8,25.7,30.48,NNW,341,3.0,8.0,59,0.00,,,0.00,497,Wunderground v.1.15,2013-03-02 15:48:00,
2013-03-02 09:54:00,38.9,25.4,30.48,ENE,76,4.0,7.0,58,0.00,,,0.00,517,Wunderground v.1.15,2013-03-02 15:54:00,
2013-03-02 10:00:00,39.7,26.5,30.48,WSW,256,3.0,3.0,59,0.00,,,0.00,531,Wunderground v.1.15,2013-03-02 16:00:00,
2013-03-02 10:06:00,40.0,26.0,30.48,North,360,4.0,9.0,57,0.00,,,0.00,547,Wunderground v.1.15,2013-03-02 16:06:00,
2013-03-02 10:12:00,40.8,26.7,30.48,NE,42,4.0,5.0,57,0.00,,,0.00,563,Wunderground v.1.15,2013-03-02 16:12:00,
2013-03-02 10:17:00,40.6,26.1,30.48,NNW,347,3.0,6.0,56,0.00,,,0.00,575,Wunderground v.1.15,2013-03-02 16:17:00,
2013-03-02 10:22:00,40.6,26.1,30.48,WNW,292,4.0,6.0,56,0.00,,,0.00,589,Wunderground v.1.15,2013-03-02 16:22:00,
2013-03-02 10:28:00,40.6,25.7,30.47,NNW,328,3.0,6.0,55,0.00,,,0.00,598,Wunderground v.1.15,2013-03-02 16:28:00,
2013-03-02 10:33:00,41.6,26.2,30.47,NNE,28,3.0,6.0,54,0.00,,,0.00,615,Wunderground v.1.15,2013-03-02 16:33:00,
2013-03-02 10:38:00,41.6,26.2,30.47,NNE,17,3.0,8.0,54,0.00,,,0.00,626,Wunderground v.1.15,2013-03-02 16:38:00,
2013-03-02 10:43:00,42.1,26.2,30.47,NW,313,4.0,8.0,53,0.00,,,0.00,638,Wunderground v.1.15,2013-03-02 16:43:00,
2013-03-02 10:49:00,42.4,26.9,30.47,WNW,294,4.0,8.0,54,0.00,,,0.00,654,Wunderground v.1.15,2013-03-02 16:49:00,
2013-03-02 10:55:00,42.7,26.3,30.47,WNW,297,3.0,4.0,52,0.00,,,0.00,661,Wunderground v.1.15,2013-03-02 16:55:00,
2013-03-02 11:00:00,43.2,26.7,30.46,NE,42,4.0,5.0,52,0.00,,,0.00,671,Wunderground v.1.15,2013-03-02 17:00:00,
2013-03-02 11:06:00,43.3,26.8,30.47,WNW,298,4.0,5.0,52,0.00,,,0.00,679,Wunderground v.1.15,2013-03-02 17:06:00,
2013-03-02 11:12:00,43.6,26.6,30.47,West,269,4.0,8.0,51,0.00,,,0.00,691,Wunderground v.1.15,2013-03-02 17:12:00,
2013-03-02 11:17:00,44.4,25.9,30.46,North,360,3.0,8.0,48,0.00,,,0.00,700,Wunderground v.1.15,2013-03-02 17:17:00,
2013-03-02 11:23:00,44.2,26.2,30.46,WNW,287,3.0,5.0,49,0.00,,,0.00,708,Wunderground v.1.15,2013-03-02 17:23:00,
2013-03-02 11:29:00,44.9,26.4,30.46,West,262,3.0,5.0,48,0.00,,,0.00,719,Wunderground v.1.15,2013-03-02 17:29:00,
2013-03-02 11:35:00,44.8,26.3,30.46,NE,41,4.0,6.0,48,0.00,,,0.00,724,Wunderground v.1.15,2013-03-02 17:35:00,
2013-03-02 11:41:00,45.6,26.5,30.45,WSW,246,3.0,6.0,47,0.00,,,0.00,735,Wunderground v.1.15,2013-03-02 17:41:00,
2013-03-02 11:46:00,45.2,26.7,30.45,WNW,298,3.0,6.0,48,0.00,,,0.00,737,Wunderground v.1.15,2013-03-02 17:46:00,
2013-03-02 11:52:00,46.3,25.6,30.44,WNW,302,3.0,4.0,44,0.00,,,0.00,745,Wunderground v.1.15,2013-03-02 17:52:00,
2013-03-02 11:57:00,46.5,26.3,30.44,West,280,2.0,5.0,45,0.00,,,0.00,749,Wunderground v.1.15,2013-03-02 17:57:00,
2013-03-02 12:03:00,46.5,26.8,30.44,NW,308,3.0,4.0,46,0.00,,,0.00,754,Wunderground v.1.15,2013-03-02 18:03:00,
2013-03-02 12:08:00,47.0,26.2,30.44,WNW,297,3.0,4.0,44,0.00,,,0.00,754,Wunderground v.1.15,2013-03-02 18:08:00,
2013-03-02 12:14:00,46.9,25.5,30.43,NW,310,2.0,5.0,43,0.00,,,0.00,756,Wunderground v.1.15,2013-03-02 18:14:00,
2013-03-02 12:19:00,47.5,26.1,30.43,NNW,340,3.0,5.0,43,0.00,,,0.00,766,Wunderground v.1.15,2013-03-02 18:19:00,
2013-03-02 12:25:00,48.3,27.4,30.42,NNW,347,4.0,4.0,44,0.00,,,0.00,761,Wunderground v.1.15,2013-03-02 18:25:00,
2013-03-02 12:30:00,48.5,26.4,30.42,NNW,338,4.0,4.0,42,0.00,,,0.00,768,Wunderground v.1.15,2013-03-02 18:30:00,
2013-03-02 12:36:00,48.7,26.6,30.42,WNW,299,3.0,8.0,42,0.00,,,0.00,768,Wunderground v.1.15,2013-03-02 18:36:00,
2013-03-02 12:42:00,48.4,25.8,30.41,NW,306,3.0,3.0,41,0.00,,,0.00,770,Wunderground v.1.15,2013-03-02 18:42:00,
2013-03-02 12:47:00,49.2,27.1,30.41,West,279,2.0,4.0,42,0.00,,,0.00,768,Wunderground v.1.15,2013-03-02 18:47:00,
2013-03-02 12:53:00,49.4,25.4,30.41,NNE,23,3.0,3.0,39,0.00,,,0.00,772,Wunderground v.1.15,2013-03-02 18:53:00,
2013-03-02 12:59:00,50.1,26.7,30.41,WNW,295,3.0,5.0,40,0.00,,,0.00,770,Wunderground v.1.15,2013-03-02 18:59:00,
2013-03-02 13:05:00,49.6,26.2,30.40,NW,306,3.0,9.0,40,0.00,,,0.00,768,Wunderground v.1.15,2013-03-02 19:05:00,
2013-03-02 13:10:00,50.6,27.1,30.40,North,5,3.0,4.0,40,0.00,,,0.00,765,Wunderground v.1.15,2013-03-02 19:10:00,
2013-03-02 13:16:00,51.3,26.5,30.39,West,279,3.0,8.0,38,0.00,,,0.00,759,Wunderground v.1.15,2013-03-02 19:16:00,
2013-03-02 13:21:00,51.3,26.5,30.39,SE,142,3.0,3.0,38,0.00,,,0.00,758,Wunderground v.1.15,2013-03-02 19:21:00,
2013-03-02 13:27:00,51.4,28.5,30.38,ESE,118,3.0,4.0,41,0.00,,,0.00,754,Wunderground v.1.15,2013-03-02 19:27:00,
2013-03-02 13:32:00,51.4,26.6,30.38,West,271,4.0,5.0,38,0.00,,,0.00,751,Wunderground v.1.15,2013-03-02 19:32:00,
2013-03-02 13:37:00,52.4,27.5,30.38,West,273,3.0,5.0,38,0.00,,,0.00,745,Wunderground v.1.15,2013-03-02 19:37:00,
2013-03-02 13:43:00,52.0,25.8,30.37,NW,325,4.0,4.0,36,0.00,,,0.00,738,Wunderground v.1.15,2013-03-02 19:43:00,
2013-03-02 13:48:00,53.0,26.7,30.37,NNW,348,3.0,7.0,36,0.00,,,0.00,729,Wunderground v.1.15,2013-03-02 19:48:00,
2013-03-02 13:53:00,53.2,27.6,30.36,West,281,3.0,4.0,37,0.00,,,0.00,724,Wunderground v.1.15,2013-03-02 19:53:00,
2013-03-02 13:59:00,52.9,26.6,30.36,NW,304,3.0,8.0,36,0.00,,,0.00,721,Wunderground v.1.15,2013-03-02 19:59:00,
2013-03-02 14:05:00,52.6,26.4,30.35,West,268,4.0,8.0,36,0.00,,,0.00,712,Wunderground v.1.15,2013-03-02 20:05:00,
2013-03-02 14:11:00,52.9,26.0,30.35,NW,305,4.0,5.0,35,0.00,,,0.00,700,Wunderground v.1.15,2013-03-02 20:11:00,
2013-03-02 14:16:00,53.5,26.5,30.35,NW,311,3.0,5.0,35,0.00,,,0.00,689,Wunderground v.1.15,2013-03-02 20:16:00,
2013-03-02 14:21:00,53.4,26.4,30.35,NNW,338,3.0,6.0,35,0.00,,,0.00,684,Wunderground v.1.15,2013-03-02 20:21:00,
2013-03-02 14:27:00,53.4,27.1,30.34,NW,311,4.0,6.0,36,0.00,,,0.00,675,Wunderground v.1.15,2013-03-02 20:27:00,
2013-03-02 14:32:00,53.6,26.6,30.34,NW,307,4.0,4.0,35,0.00,,,0.00,664,Wunderground v.1.15,2013-03-02 20:32:00,
2013-03-02 14:38:00,54.4,26.6,30.34,WNW,303,4.0,9.0,34,0.00,,,0.00,656,Wunderground v.1.15,2013-03-02 20:38:00,
2013-03-02 14:44:00,54.2,26.4,30.34,WNW,296,4.0,8.0,34,0.00,,,0.00,643,Wunderground v.1.15,2013-03-02 20:44:00,
2013-03-02 14:50:00,54.6,27.5,30.33,NNW,337,4.0,4.0,35,0.00,,,0.00,631,Wunderground v.1.15,2013-03-02 20:50:00,
2013-03-02 14:55:00,54.6,27.5,30.33,West,276,3.0,6.0,35,0.00,,,0.00,619,Wunderground v.1.15,2013-03-02 20:55:00,
2013-03-02 15:01:00,55.1,25.7,30.33,WNW,290,3.0,7.0,32,0.00,,,0.00,603,Wunderground v.1.15,2013-03-02 21:01:00,
2013-03-02 15:07:00,54.8,27.6,30.32,NE,46,4.0,7.0,35,0.00,,,0.00,592,Wunderground v.1.15,2013-03-02 21:07:00,
2013-03-02 15:12:00,54.5,26.7,30.32,NW,305,3.0,8.0,34,0.00,,,0.00,578,Wunderground v.1.15,2013-03-02 21:12:00,
2013-03-02 15:18:00,55.1,26.5,30.32,WNW,290,3.0,8.0,33,0.00,,,0.00,566,Wunderground v.1.15,2013-03-02 21:18:00,
2013-03-02 15:24:00,55.5,27.6,30.32,WNW,301,3.0,7.0,34,0.00,,,0.00,547,Wunderground v.1.15,2013-03-02 21:24:00,
2013-03-02 15:30:00,55.8,27.1,30.31,WSW,241,3.0,7.0,33,0.00,,,0.00,534,Wunderground v.1.15,2013-03-02 21:30:00,
2013-03-02 15:35:00,55.9,27.2,30.32,NW,322,4.0,7.0,33,0.00,,,0.00,520,Wunderground v.1.15,2013-03-02 21:35:00,
2013-03-02 15:41:00,55.7,27.7,30.31,WNW,301,3.0,5.0,34,0.00,,,0.00,503,Wunderground v.1.15,2013-03-02 21:41:00,
2013-03-02 15:47:00,56.7,30.7,30.31,North,5,3.0,5.0,37,0.00,,,0.00,471,Wunderground v.1.15,2013-03-02 21:47:00,
2013-03-02 15:52:00,56.0,31.4,30.31,NNE,15,3.0,5.0,39,0.00,,,0.00,469,Wunderground v.1.15,2013-03-02 21:52:00,
2013-03-02 15:58:00,55.6,30.4,30.31,NNE,31,2.0,5.0,38,0.00,,,0.00,452,Wunderground v.1.15,2013-03-02 21:58:00,
2013-03-02 16:04:00,55.9,28.6,30.31,West,273,2.0,4.0,35,0.00,,,0.00,438,Wunderground v.1.15,2013-03-02 22:04:00,
2013-03-02 16:09:00,56.2,28.9,30.31,WNW,300,2.0,4.0,35,0.00,,,0.00,422,Wunderground v.1.15,2013-03-02 22:09:00,
2013-03-02 16:14:00,55.8,27.8,30.31,NW,307,2.0,7.0,34,0.00,,,0.00,406,Wunderground v.1.15,2013-03-02 22:14:00,
2013-03-02 16:20:00,56.2,28.2,30.31,East,98,3.0,3.0,34,0.00,,,0.00,387,Wunderground v.1.15,2013-03-02 22:20:00,
2013-03-02 16:25:00,56.5,28.4,30.31,NE,50,3.0,5.0,34,0.00,,,0.00,371,Wunderground v.1.15,2013-03-02 22:25:00,
2013-03-02 16:31:00,56.2,27.4,30.31,WNW,288,3.0,4.0,33,0.00,,,0.00,350,Wunderground v.1.15,2013-03-02 22:31:00,
2013-03-02 16:36:00,56.6,28.5,30.31,WNW,299,3.0,4.0,34,0.00,,,0.00,334,Wunderground v.1.15,2013-03-02 22:36:00,
2013-03-02 16:42:00,56.4,28.3,30.30,WNW,293,2.0,7.0,34,0.00,,,0.00,313,Wunderground v.1.15,2013-03-02 22:42:00,
2013-03-02 16:48:00,56.0,28.7,30.30,WNW,300,2.0,7.0,35,0.00,,,0.00,294,Wunderground v.1.15,2013-03-02 22:48:00,
2013-03-02 16:53:00,55.3,27.4,30.30,West,264,2.0,3.0,34,0.00,,,0.00,42,Wunderground v.1.15,2013-03-02 22:53:00,
2013-03-02 16:59:00,55.3,29.4,30.30,West,264,1.0,3.0,37,0.00,,,0.00,37,Wunderground v.1.15,2013-03-02 22:59:00,
2013-03-02 17:04:00,55.6,29.0,30.30,NE,40,1.0,5.0,36,0.00,,,0.00,35,Wunderground v.1.15,2013-03-02 23:04:00,
2013-03-02 17:09:00,55.7,28.4,30.30,West,259,2.0,6.0,35,0.00,,,0.00,35,Wunderground v.1.15,2013-03-02 23:09:00,
2013-03-02 17:15:00,55.6,28.4,30.30,WSW,255,2.0,5.0,35,0.00,,,0.00,33,Wunderground v.1.15,2013-03-02 23:15:00,
2013-03-02 17:20:00,55.8,29.2,30.30,North,360,2.0,6.0,36,0.00,,,0.00,32,Wunderground v.1.15,2013-03-02 23:20:00,
2013-03-02 17:26:00,55.7,28.4,30.30,NNW,342,2.0,6.0,35,0.00,,,0.00,32,Wunderground v.1.15,2013-03-02 23:26:00,
2013-03-02 17:32:00,55.6,29.0,30.30,NW,322,2.0,2.0,36,0.00,,,0.00,30,Wunderground v.1.15,2013-03-02 23:32:00,
2013-03-02 17:37:00,55.4,28.9,30.30,North,5,2.0,3.0,36,0.00,,,0.00,28,Wunderground v.1.15,2013-03-02 23:37:00,
2013-03-02 17:43:00,55.3,28.8,30.30,NNE,32,1.0,3.0,36,0.00,,,0.00,26,Wunderground v.1.15,2013-03-02 23:43:00,
2013-03-02 17:49:00,55.1,28.6,30.30,North,5,1.0,3.0,36,0.00,,,0.00,23,Wunderground v.1.15,2013-03-02 23:49:00,
2013-03-02 17:54:00,55.1,28.6,30.30,North,360,0.0,2.0,36,0.00,,,0.00,21,Wunderground v.1.15,2013-03-02 23:54:00,
2013-03-02 18:00:00,54.9,30.4,30.30,NE,36,1.0,1.0,39,0.00,,,0.00,16,Wunderground v.1.15,2013-03-03 00:00:00,
2013-03-02 18:05:00,54.6,29.5,30.30,NE,38,1.0,2.0,38,0.00,,,0.00,14,Wunderground v.1.15,2013-03-03 00:05:00,
2013-03-02 18:11:00,54.2,31.0,30.30,NE,38,0.0,0.0,41,0.00,,,0.00,12,Wunderground v.1.15,2013-03-03 00:11:00,
2013-03-02 18:17:00,53.7,30.5,30.30,NE,38,0.0,1.0,41,0.00,,,0.00,9,Wunderground v.1.15,2013-03-03 00:17:00,
2013-03-02 18:22:00,53.2,32.9,30.30,NE,38,0.0,0.0,46,0.00,,,0.00,7,Wunderground v.1.15,2013-03-03 00:22:00,
2013-03-02 18:28:00,52.8,32.0,30.30,NE,38,0.0,0.0,45,0.00,,,0.00,0,Wunderground v.1.15,2013-03-03 00:28:00,
2013-03-02 18:33:00,52.7,30.8,30.30,NE,38,0.0,0.0,43,0.00,,,0.00,0,Wunderground v.1.15,2013-03-03 00:33:00,
2013-03-02 18:39:00,52.8,31.5,30.30,NE,43,0.0,1.0,44,0.00,,,0.00,0,Wunderground v.1.15,2013-03-03 00:39:00,
2013-03-02 18:44:00,52.1,34.0,30.30,NE,43,0.0,0.0,50,0.00,,,0.00,0,Wunderground v.1.15,2013-03-03 00:44:00,
2013-03-02 18:50:00,50.8,32.8,30.30,NE,43,0.0,0.0,50,0.00,,,0.00,0,Wunderground v.1.15,2013-03-03 00:50:00,
2013-03-02 18:55:00,50.4,32.9,30.30,NE,43,0.0,0.0,51,0.00,,,0.00,0,Wunderground v.1.15,2013-03-03 00:55:00,
2013-03-02 19:00:00,50.0,34.0,30.30,NE,43,0.0,0.0,54,0.00,,,0.00,0,Wunderground v.1.15,2013-03-03 01:00:00,
2013-03-02 19:06:00,49.4,34.3,30.30,NE,43,0.0,0.0,56,0.00,,,0.00,0,Wunderground v.1.15,2013-03-03 01:06:00,
2013-03-02 19:12:00,49.1,33.2,30.30,NE,43,0.0,0.0,54,0.00,,,0.00,0,Wunderground v.1.15,2013-03-03 01:12:00,
2013-03-02 19:17:00,49.8,30.9,30.30,NE,41,0.0,2.0,48,0.00,,,0.00,0,Wunderground v.1.15,2013-03-03 01:17:00,
2013-03-02 19:23:00,50.6,30.6,30.30,ENE,65,1.0,2.0,46,0.00,,,0.00,0,Wunderground v.1.15,2013-03-03 01:23:00,
2013-03-02 19:28:00,50.9,29.7,30.30,ENE,57,1.0,2.0,44,0.00,,,0.00,0,Wunderground v.1.15,2013-03-03 01:28:00,
2013-03-02 19:34:00,50.6,31.6,30.29,ENE,57,0.0,1.0,48,0.00,,,0.00,0,Wunderground v.1.15,2013-03-03 01:34:00,
2013-03-02 19:39:00,49.8,31.4,30.30,ENE,57,0.0,1.0,49,0.00,,,0.00,0,Wunderground v.1.15,2013-03-03 01:39:00,
2013-03-02 19:45:00,48.8,32.4,30.30,ENE,57,0.0,0.0,53,0.00,,,0.00,0,Wunderground v.1.15,2013-03-03 01:45:00,
2013-03-02 19:50:00,48.3,31.5,30.30,ENE,57,0.0,0.0,52,0.00,,,0.00,0,Wunderground v.1.15,2013-03-03 01:50:00,
2013-03-02 19:56:00,47.8,31.9,30.30,ENE,57,0.0,0.0,54,0.00,,,0.00,0,Wunderground v.1.15,2013-03-03 01:56:00,
2013-03-02 20:01:00,47.8,31.5,30.29,ENE,57,0.0,0.0,53,0.00,,,0.00,0,Wunderground v.1.15,2013-03-03 02:01:00,
2013-03-02 20:07:00,47.8,31.9,30.30,ENE,57,0.0,0.0,54,0.00,,,0.00,0,Wunderground v.1.15,2013-03-03 02:07:00,
2013-03-02 20:13:00,47.4,32.0,30.30,ENE,57,0.0,0.0,55,0.00,,,0.00,0,Wunderground v.1.15,2013-03-03 02:13:00,
2013-03-02 20:18:00,47.3,31.9,30.30,ENE,57,0.0,0.0,55,0.00,,,0.00,0,Wunderground v.1.15,2013-03-03 02:18:00,
2013-03-02 20:24:00,47.7,31.4,30.30,ENE,57,0.0,0.0,53,0.00,,,0.00,0,Wunderground v.1.15,2013-03-03 02:24:00,
2013-03-02 20:30:00,47.0,31.2,30.30,ENE,57,0.0,0.0,54,0.00,,,0.00,0,Wunderground v.1.15,2013-03-03 02:30:00,
2013-03-02 20:35:00,46.4,31.5,30.29,ENE,57,0.0,0.0,56,0.00,,,0.00,0,Wunderground v.1.15,2013-03-03 02:35:00,
2013-03-02 20:41:00,46.1,30.8,30.29,ENE,57,0.0,0.0,55,0.00,,,0.00,0,Wunderground v.1.15,2013-03-03 02:41:00,
2013-03-02 20:47:00,45.9,31.5,30.29,ENE,57,0.0,0.0,57,0.00,,,0.00,0,Wunderground v.1.15,2013-03-03 02:47:00,
2013-03-02 20:52:00,45.8,31.4,30.29,ENE,57,0.0,0.0,57,0.00,,,0.00,0,Wunderground v.1.15,2013-03-03 02:52:00,
2013-03-02 20:58:00,45.5,31.6,30.29,ENE,57,0.0,0.0,58,0.00,,,0.00,0,Wunderground v.1.15,2013-03-03 02:58:00,
2013-03-02 21:04:00,45.0,30.2,30.29,ENE,57,0.0,0.0,56,0.00,,,0.00,0,Wunderground v.1.15,2013-03-03 03:04:00,
2013-03-02 21:09:00,44.6,30.7,30.29,ENE,57,0.0,0.0,58,0.00,,,0.00,0,Wunderground v.1.15,2013-03-03 03:09:00,
2013-03-02 21:15:00,44.3,32.5,30.30,ENE,57,0.0,0.0,63,0.00,,,0.00,0,Wunderground v.1.15,2013-03-03 03:15:00,
2013-03-02 21:21:00,43.9,31.3,30.29,ENE,57,0.0,0.0,61,0.00,,,0.00,0,Wunderground v.1.15,2013-03-03 03:21:00,
2013-03-02 21:27:00,43.6,31.0,30.29,ENE,57,0.0,0.0,61,0.00,,,0.00,0,Wunderground v.1.15,2013-03-03 03:27:00,
2013-03-02 21:32:00,43.3,31.5,30.30,ENE,57,0.0,0.0,63,0.00,,,0.00,0,Wunderground v.1.15,2013-03-03 03:32:00,
2013-03-02 21:38:00,43.1,31.0,30.29,ENE,57,0.0,0.0,62,0.00,,,0.00,0,Wunderground v.1.15,2013-03-03 03:38:00,
2013-03-02 21:43:00,43.0,31.6,30.29,ENE,57,0.0,0.0,64,0.00,,,0.00,0,Wunderground v.1.15,2013-03-03 03:43:00,
2013-03-02 21:49:00,43.0,31.6,30.29,ENE,57,0.0,0.0,64,0.00,,,0.00,0,Wunderground v.1.15,2013-03-03 03:49:00,
2013-03-02 21:55:00,42.8,31.8,30.29,ENE,57,0.0,0.0,65,0.00,,,0.00,0,Wunderground v.1.15,2013-03-03 03:55:00,
2013-03-02 22:00:00,42.4,30.3,30.29,ENE,57,0.0,0.0,62,0.00,,,0.00,0,Wunderground v.1.15,2013-03-03 04:00:00,
2013-03-02 22:06:00,42.3,31.4,30.29,ENE,57,0.0,0.0,65,0.00,,,0.00,0,Wunderground v.1.15,2013-03-03 04:06:00,
2013-03-02 22:12:00,42.1,31.6,30.28,ENE,57,0.0,0.0,66,0.00,,,0.00,0,Wunderground v.1.15,2013-03-03 04:12:00,
2013-03-02 22:18:00,42.0,31.5,30.28,ENE,57,0.0,0.0,66,0.00,,,0.00,0,Wunderground v.1.15,2013-03-03 04:18:00,
2013-03-02 22:24:00,41.8,31.3,30.28,ENE,57,0.0,0.0,66,0.00,,,0.00,0,Wunderground v.1.15,2013-03-03 04:24:00,
2013-03-02 22:30:00,41.6,31.1,30.28,ENE,57,0.0,0.0,66,0.00,,,0.00,0,Wunderground v.1.15,2013-03-03 04:30:00,
2013-03-02 22:36:00,41.7,30.8,30.28,ENE,57,0.0,0.0,65,0.00,,,0.00,0,Wunderground v.1.15,2013-03-03 04:36:00,
2013-03-02 22:41:00,41.6,31.4,30.28,ENE,57,0.0,0.0,67,0.00,,,0.00,0,Wunderground v.1.15,2013-03-03 04:41:00,
2013-03-02 22:47:00,41.3,31.5,30.28,ENE,57,0.0,0.0,68,0.00,,,0.00,0,Wunderground v.1.15,2013-03-03 04:47:00,
2013-03-02 22:53:00,41.2,32.2,30.28,ENE,57,0.0,0.0,70,0.00,,,0.00,0,Wunderground v.1.15,2013-03-03 04:53:00,
2013-03-02 22:58:00,41.1,32.1,30.28,ENE,57,0.0,0.0,70,0.00,,,0.00,0,Wunderground v.1.15,2013-03-03 04:58:00,
2013-03-02 23:00:00,41.1,32.1,30.28,ENE,57,0.0,0.0,70,0.00,,,0.00,0,Wunderground v.1.15,2013-03-03 05:00:00,
2013-03-02 23:01:00,41.1,32.4,30.28,ENE,57,0.0,0.0,71,0.00,,,0.00,0,Wunderground v.1.15,2013-03-03 05:01:00,
2013-03-02 23:03:00,41.0,32.3,30.28,ENE,57,0.0,0.0,71,0.00,,,0.00,0,Wunderground v.1.15,2013-03-03 05:03:00,
2013-03-02 23:04:00,41.1,32.4,30.28,ENE,57,0.0,0.0,71,0.00,,,0.00,0,Wunderground v.1.15,2013-03-03 05:04:00,
2013-03-02 23:10:00,40.9,31.9,30.27,ENE,57,0.0,0.0,70,0.00,,,0.00,0,Wunderground v.1.15,2013-03-03 05:10:00,
2013-03-02 23:16:00,40.9,31.9,30.27,ENE,57,0.0,0.0,70,0.00,,,0.00,0,Wunderground v.1.15,2013-03-03 05:16:00,
2013-03-02 23:22:00,40.8,32.1,30.27,ENE,57,0.0,0.0,71,0.00,,,0.00,0,Wunderground v.1.15,2013-03-03 05:22:00,
2013-03-02 23:27:00,40.6,31.9,30.27,ENE,57,0.0,0.0,71,0.00,,,0.00,0,Wunderground v.1.15,2013-03-03 05:27:00,
2013-03-02 23:33:00,40.6,31.9,30.27,ENE,57,0.0,0.0,71,0.00,,,0.00,0,Wunderground v.1.15,2013-03-03 05:33:00,
2013-03-02 23:38:00,40.6,32.3,30.27,ENE,57,0.0,0.0,72,0.00,,,0.00,0,Wunderground v.1.15,2013-03-03 05:38:00,
2013-03-02 23:44:00,40.5,31.8,30.27,ENE,57,0.0,0.0,71,0.00,,,0.00,0,Wunderground v.1.15,2013-03-03 05:44:00,
2013-03-02 23:50:00,40.5,31.5,30.27,ENE,57,0.0,0.0,70,0.00,,,0.00,0,Wunderground v.1.15,2013-03-03 05:50:00,
2013-03-02 23:55:00,40.2,31.5,30.27,ENE,57,0.0,0.0,71,0.00,,,0.00,0,Wunderground v.1.15,2013-03-03 05:55:00,